Date String (YYYY-MM-DD hh:mm:ss) UTC,Instrument flags,Ambient pressure (hPa),Sample flow (lpm),Bypass flow (lpm),Sample temperature (°C),Ambient temperature (°C),ASC tube jacket temperature (°C),LED temperature (°C),Box temperature (°C),Sample RH (%),Span deviation,Mass concentration (μg/m³),Mass concentration (μg/m³),Mass concentration (μg/m³)
DateTimeUTC,F1_M11,P_M11,Q1_M11,Q2_M11,T1_M11,T2_M11,T3_M11,T4_M11,T5_M11,U1_M11,ZSPAN_M11,X0_M11,X2_M11,X1_M11
2022-01-19 00:00:00,,0820.5,4.99,0.00,23.5,22.7,00.0,32.5,25.3,08.2,0000.0,0013.22,0003.09,0001.57
2022-01-19 00:01:00,,0820.5,5.00,0.00,23.5,22.7,00.0,32.5,25.2,08.5,0000.0,0015.04,0003.41,0001.89
2022-01-19 00:02:00,,0820.5,4.99,0.00,23.5,22.7,00.0,32.5,25.2,08.5,0000.0,0016.25,0003.69,0002.27
2022-01-19 00:03:00,,0820.6,5.00,0.00,23.5,22.7,00.0,32.5,25.2,08.4,0000.0,0016.31,0004.01,0002.67
2022-01-19 00:04:00,,0820.6,4.98,0.00,23.5,22.7,00.0,32.5,25.2,08.7,0000.0,0016.84,0004.31,0003.03
2022-01-19 00:05:00,,0820.6,5.01,0.00,23.4,22.7,00.0,32.5,25.1,08.7,0000.0,0018.12,0004.58,0003.26
2022-01-19 00:06:00,,0820.5,5.00,0.00,23.4,22.7,00.0,32.5,25.1,08.7,0001.4,0019.49,0004.89,0003.44
2022-01-19 00:07:00,,0820.6,5.00,0.00,23.4,22.6,00.0,32.4,25.1,08.8,0002.8,0021.71,0005.17,0003.61
2022-01-19 00:08:00,,0820.5,5.00,0.00,23.3,22.6,00.0,32.4,25.1,08.9,0003.6,0022.31,0005.33,0003.73
2022-01-19 00:09:00,,0820.5,5.01,0.00,23.3,22.6,00.0,32.4,25.0,09.0,0004.2,0021.17,0005.31,0003.78
2022-01-19 00:10:00,,0820.6,4.99,0.00,23.3,22.5,00.0,32.4,25.0,09.1,0001.0,0020.84,0005.39,0003.87
2022-01-19 00:11:00,,0820.6,4.99,0.00,23.3,22.5,00.0,32.4,25.0,09.1,0000.0,0020.38,0005.47,0003.94
2022-01-19 00:12:00,,0820.6,4.99,0.00,23.3,22.5,00.0,32.4,25.0,09.2,0000.7,0018.89,0005.55,0004.03
2022-01-19 00:13:00,,0820.7,5.01,0.00,23.3,22.6,00.0,32.4,25.0,09.4,0000.0,0017.56,0005.57,0004.07
2022-01-19 00:14:00,,0820.8,5.00,0.00,23.3,22.6,00.0,32.3,25.0,09.4,0000.0,0018.75,0005.62,0004.11
2022-01-19 00:15:00,,0820.9,5.00,0.00,23.3,22.6,00.0,32.3,25.1,09.4,0000.0,0019.36,0005.67,0004.17
2022-01-19 00:16:00,,0820.9,5.01,0.00,23.3,22.6,00.0,32.3,25.1,09.6,0000.0,0019.80,0005.78,0004.23
2022-01-19 00:17:00,,0820.9,4.98,0.00,23.3,22.6,00.0,32.3,25.1,09.6,0000.0,0019.71,0005.86,0004.31
2022-01-19 00:18:00,,0821.0,5.02,0.00,23.3,22.6,00.0,32.3,25.1,09.7,0000.0,0019.41,0005.95,0004.41
2022-01-19 00:19:00,,0821.0,4.99,0.00,23.3,22.7,00.0,32.3,25.1,09.5,0000.0,0019.00,0006.12,0004.56
2022-01-19 00:20:00,,0821.0,5.00,0.00,23.3,22.7,00.0,32.3,25.1,09.4,0000.0,0019.12,0006.26,0004.70
2022-01-19 00:21:00,,0821.0,5.00,0.00,23.3,22.7,00.0,32.3,25.1,09.2,0002.0,0019.11,0006.35,0004.83
2022-01-19 00:22:00,,0820.9,5.00,0.00,23.4,22.7,00.0,32.3,25.1,08.9,0002.6,0019.07,0006.42,0004.93
2022-01-19 00:23:00,,0821.0,4.99,0.00,23.4,22.7,00.0,32.3,25.1,08.8,0002.3,0018.94,0006.43,0004.98
2022-01-19 00:24:00,,0821.0,5.00,0.00,23.4,22.7,00.0,32.3,25.2,08.7,0000.7,0019.59,0006.51,0005.07
2022-01-19 00:25:00,,0821.0,5.00,0.00,23.4,22.7,00.0,32.3,25.2,08.7,0001.9,0019.06,0006.59,0005.14
2022-01-19 00:26:00,,0821.0,4.99,0.00,23.4,22.7,00.0,32.3,25.2,08.7,0002.4,0018.26,0006.64,0005.20
2022-01-19 00:27:00,,0821.1,4.99,0.00,23.4,22.7,00.0,32.3,25.2,08.8,0002.1,0017.54,0006.67,0005.27
2022-01-19 00:28:00,,0821.1,5.01,0.00,23.4,22.7,00.0,32.3,25.2,08.9,0000.4,0017.36,0006.72,0005.36
2022-01-19 00:29:00,,0821.1,4.99,0.00,23.4,22.7,00.0,32.3,25.2,09.1,0000.0,0016.23,0006.82,0005.44
2022-01-19 00:30:00,,0821.1,5.01,0.00,23.4,22.7,00.0,32.3,25.2,09.3,0000.0,0016.14,0006.79,0005.46
2022-01-19 00:31:00,,0821.1,4.99,0.00,23.4,22.7,00.0,32.3,25.2,09.5,0000.0,0016.65,0006.71,0005.41
2022-01-19 00:32:00,,0821.2,5.02,0.00,23.4,22.7,00.0,32.3,25.1,09.7,0000.0,0017.52,0006.63,0005.31
2022-01-19 00:33:00,,0821.2,4.99,0.00,23.4,22.8,00.0,32.3,25.1,09.9,0000.0,0016.95,0006.52,0005.21
2022-01-19 00:34:00,,0821.2,5.01,0.00,23.4,22.7,00.0,32.4,25.1,10.0,0000.0,0016.39,0006.45,0005.12
2022-01-19 00:35:00,,0821.2,5.01,0.00,23.4,22.7,00.0,32.4,25.1,09.9,0000.0,0015.25,0006.31,0005.03
2022-01-19 00:36:00,,0821.2,4.99,0.00,23.4,22.7,00.0,32.4,25.1,09.9,0000.0,0014.90,0006.22,0004.96
2022-01-19 00:37:00,,0821.3,5.01,0.00,23.4,22.7,00.0,32.4,25.1,09.6,0000.0,0014.75,0006.20,0004.92
2022-01-19 00:38:00,,0821.3,4.99,0.00,23.4,22.7,00.0,32.4,25.1,09.6,0000.0,0014.73,0006.19,0004.88
2022-01-19 00:39:00,,0821.3,5.00,0.00,23.4,22.7,00.0,32.4,25.1,09.8,0000.0,0014.96,0006.19,0004.82
2022-01-19 00:40:00,,0821.4,5.01,0.00,23.4,22.7,00.0,32.4,25.1,09.6,0000.0,0015.11,0006.10,0004.74
2022-01-19 00:41:00,,0821.4,4.98,0.00,23.4,22.7,00.0,32.4,25.1,09.5,0000.0,0014.59,0005.99,0004.66
2022-01-19 00:42:00,,0821.4,5.01,0.00,23.4,22.7,00.0,32.4,25.1,09.3,0000.0,0013.90,0005.94,0004.66
2022-01-19 00:43:00,,0821.4,4.99,0.00,23.4,22.6,00.0,32.4,25.1,09.2,0000.0,0013.88,0005.94,0004.69
2022-01-19 00:44:00,,0821.4,5.02,0.00,23.4,22.6,00.0,32.4,25.1,09.1,0000.0,0013.64,0006.01,0004.75
2022-01-19 00:45:00,,0821.4,4.99,0.00,23.4,22.6,00.0,32.4,25.1,09.0,0000.0,0015.01,0006.03,0004.81
2022-01-19 00:46:00,,0821.4,5.00,0.00,23.4,22.6,00.0,32.4,25.1,08.9,0000.0,0015.54,0006.12,0004.87
2022-01-19 00:47:00,,0821.4,4.99,0.00,23.3,22.6,00.0,32.4,25.0,08.9,0000.0,0016.02,0006.17,0004.91
2022-01-19 00:48:00,,0821.4,5.01,0.00,23.3,22.6,00.0,32.3,25.1,08.8,0000.0,0016.10,0006.17,0004.94
2022-01-19 00:49:00,,0821.5,5.00,0.00,23.3,22.6,00.0,32.4,25.1,08.9,0000.0,0016.42,0006.12,0004.94
2022-01-19 00:50:00,,0821.6,5.00,0.00,23.3,22.6,00.0,32.4,25.1,08.8,0000.0,0015.96,0006.04,0004.95
2022-01-19 00:51:00,,0821.6,5.00,0.00,23.3,22.6,00.0,32.4,25.0,08.8,0000.0,0015.53,0006.00,0004.95
2022-01-19 00:52:00,,0821.7,5.00,0.00,23.3,22.6,00.0,32.4,25.0,08.7,0000.0,0015.65,0006.01,0004.96
2022-01-19 00:53:00,,0821.7,5.01,0.00,23.3,22.6,00.0,32.4,25.1,08.7,0000.0,0015.59,0006.04,0004.97
2022-01-19 00:54:00,,0821.7,4.99,0.00,23.3,22.6,00.0,32.4,25.0,08.6,0000.0,0014.40,0005.98,0004.96
2022-01-19 00:55:00,,0821.7,5.02,0.00,23.3,22.6,00.0,32.4,25.0,08.6,0000.0,0013.97,0005.90,0004.91
2022-01-19 00:56:00,,0821.6,4.99,0.00,23.3,22.5,00.0,32.4,25.0,08.4,0000.0,0012.39,0005.82,0004.86
2022-01-19 00:57:00,,0821.7,5.01,0.00,23.3,22.5,00.0,32.4,25.0,08.4,0000.0,0011.86,0005.75,0004.81
